Theta_e
329 330 331 332 332 332 331 331 330 328 327 327 326 326 326 326 325 326 327 327 326 325 325 324 323 322 321 321 321 321 322 323 323 323 323 322 321 320 319 318 318 318 319 319 318 318 318 318 316 315 311 307
327 328 330 330 330 330 330 330 328 327 326 326 325 325 325 325 324 325 326 326 325 326 325 323 322 321 321 321 320 321 321 322 322 322 322 321 320 319 318 317 317 317 318 318 317 317 316 315 315 314 310 304
327 326 327 328 328 329 328 328 328 326 326 326 324 324 323 323 322 323 323 324 325 324 324 322 321 321 321 321 320 323 321 321 322 321 320 320 318 318 316 315 315 316 318 318 317 316 315 313 313 311 306 302
326 325 324 326 326 326 326 326 326 326 326 324 322 322 321 320 319 320 321 322 322 323 322 321 319 321 322 321 320 320 319 319 318 318 318 318 318 316 314 314 313 314 316 316 315 314 312 311 309 304 303 303
324 325 322 324 324 324 324 324 324 324 323 321 320 319 318 318 318 318 318 320 318 321 318 318 318 320 321 321 320 319 318 318 318 317 316 316 315 312 310 309 310 312 314 314 313 312 310 307 301 302 303 303
324 324 323 325 325 324 324 323 322 321 320 316 318 317 317 317 314 315 315 314 314 315 314 316 317 318 319 320 320 319 317 316 317 317 316 314 310 307 305 302 292 297 309 311 311 309 307 298 299 301 302 303
321 324 323 324 325 323 322 320 319 319 317 317 316 316 316 312 311 312 311 311 311 311 314 313 316 316 319 320 319 318 316 315 315 315 314 311 307 305 303 295 293 292 292 297 304 302 296 295 297 300 301 301
322 323 322 323 324 323 321 321 318 317 316 315 315 314 313 310 310 310 309 310 309 309 310 312 314 315 316 316 317 316 314 315 314 313 310 308 306 303 297 292 292 291 292 292 293 293 293 294 296 299 300 300
320 319 320 321 320 320 320 318 317 316 315 314 313 311 310 309 309 309 309 308 307 306 307 305 308 311 310 311 311 312 308 308 309 304 299 297 294 292 293 291 291 291 292 293 293 293 293 294 295 297 298 300
319 318 318 319 317 316 315 315 314 313 312 312 311 310 309 308 308 308 307 306 306 306 306 304 303 303 305 305 306 306 305 304 300 295 292 291 291 290 291 291 292 292 292 292 292 292 293 294 295 296 297 299
317 318 317 316 314 314 313 313 312 311 310 310 310 309 309 308 307 307 306 305 305 304 304 303 301 300 301 302 302 303 303 300 297 293 291 291 290 290 290 291 291 292 292 292 292 292 293 293 295 296 297 298
316 316 317 315 313 313 312 313 312 312 312 311 311 310 309 308 308 307 306 305 305 304 303 302 301 301 299 300 299 301 301 298 294 291 290 290 290 290 290 290 290 291 291 291 292 292 292 293 294 296 296 297
315 314 315 314 313 312 311 312 312 312 311 310 309 309 309 308 307 307 307 305 305 304 303 302 301 301 300 299 297 298 297 296 291 289 289 290 290 289 289 289 289 290 290 290 291 291 292 293 294 295 295 296
312 311 312 313 313 313 312 312 310 310 309 309 309 309 309 308 308 307 307 306 305 304 303 302 301 301 300 299 297 297 296 294 289 288 288 288 289 289 289 289 289 290 289 290 290 290 291 292 293 294 294 294
311 309 309 311 313 313 312 311 310 310 310 309 309 309 309 308 308 308 307 306 305 305 304 302 301 301 300 299 299 298 296 293 289 288 287 288 287 288 288 289 289 289 289 289 289 290 290 290 292 292 293 293
310 310 310 310 312 313 312 311 310 309 309 308 309 309 308 308 308 307 306 305 304 304 303 302 301 301 300 300 298 297 295 291 289 288 287 286 286 287 287 287 288 289 288 288 289 289 289 289 291 292 293 293
309 311 310 310 310 311 312 310 309 309 309 309 309 308 307 306 306 306 306 305 304 304 303 302 301 300 300 299 298 295 293 290 287 287 286 286 286 285 285 285 286 288 288 287 287 288 288 289 290 292 292 293
303 306 310 308 310 310 310 311 310 309 309 309 308 307 307 307 306 305 305 304 304 303 302 302 301 300 300 299 297 294 291 288 287 286 286 286 286 287 285 285 285 285 286 286 286 286 287 288 289 291 292 292
300 302 304 308 309 310 310 310 310 309 309 307 307 307 306 306 306 305 305 304 303 302 302 301 301 300 300 298 296 293 290 288 287 286 286 286 285 285 284 284 285 285 285 285 285 285 286 286 287 289 291 291
297 300 302 303 305 309 308 308 308 308 308 307 305 305 305 305 304 304 305 304 303 302 301 301 301 300 300 297 295 293 290 288 287 286 287 287 286 285 284 285 284 285 284 285 285 284 285 285 287 287 288 290
294 297 300 300 302 303 305 307 305 306 308 306 306 305 305 305 304 303 304 303 303 302 302 301 300 300 299 297 295 293 290 288 288 287 287 286 286 286 283 283 283 283 284 284 285 284 284 284 286 286 288 289
291 294 298 298 299 300 300 301 304 305 305 305 306 305 305 304 303 302 303 302 302 302 301 301 300 299 298 297 294 293 290 289 288 287 287 285 285 285 283 283 283 282 283 284 284 283 284 284 284 284 286 288
289 291 293 296 296 298 297 298 300 302 303 304 304 303 302 303 303 302 302 302 301 300 300 300 299 298 297 296 294 293 291 288 287 287 286 286 285 285 284 284 283 283 283 283 283 283 282 283 283 284 285 287
286 287 289 291 293 294 295 295 296 296 296 298 299 301 302 302 302 303 302 302 301 300 299 299 298 297 296 295 293 292 290 289 289 288 287 286 285 284 284 284 283 282 282 281 281 282 282 282 283 283 285 285
285 284 285 289 290 291 293 292 294 294 294 294 295 296 298 300 301 302 302 302 302 301 299 299 298 297 295 295 293 292 291 291 290 290 289 288 288 285 283 282 282 282 282 281 280 280 281 281 281 284 284 283
284 285 284 285 288 290 292 291 290 291 292 292 293 294 295 296 298 299 300 300 301 301 300 298 297 296 295 294 293 293 292 291 290 290 288 287 285 285 284 282 282 282 282 279 279 278 277 279 280 281 283 282
282 284 284 284 285 285 288 291 291 291 291 292 291 293 293 294 295 296 298 298 298 298 298 298 297 296 295 294 293 291 291 290 289 289 288 287 285 283 283 283 283 282 283 278 279 279 278 275 277 280 280 280
281 283 283 284 284 284 284 284 286 289 289 289 289 289 291 292 293 294 295 297 297 297 296 296 296 295 294 294 292 291 290 289 288 288 287 286 286 284 282 282 282 283 283 280 280 277 276 276 276 274 277 278
280 281 281 281 281 282 282 283 283 283 283 285 286 287 288 289 291 292 293 294 296 296 296 296 296 295 294 293 292 292 290 289 289 289 288 287 286 284 283 282 282 283 283 281 284 280 276 273 273 276 276 278
279 279 279 278 278 278 278 278 279 279 279 281 282 283 287 288 289 290 291 292 293 294 295 295 295 294 293 292 290 290 290 290 289 288 288 288 287 286 286 284 282 281 284 282 283 282 280 279 277 277 276 277
279 278 278 277 277 278 277 277 278 279 280 280 281 282 283 284 287 288 288 289 290 291 292 294 294 293 292 291 290 290 288 288 288 288 288 288 287 286 286 285 282 282 282 283 282 283 282 281 280 277 278 276
Wind_Speed
1 9 13 19 21 20 20 24 25 26 26 25 25 24 23 23 21 22 21 20 21 18 18 16 16 15 15 15 13 12 13 15 15 15 15 16 13 11 9 6 7 9 13 15 15 13 12 11 11 9 7 6
13 11 15 16 15 17 19 22 24 24 25 24 23 24 23 21 20 23 24 22 22 24 21 19 18 17 17 17 17 15 15 16 15 14 16 15 14 13 8 6 8 10 13 15 15 13 12 11 10 9 9 6
5 15 17 18 16 17 16 16 16 19 20 22 21 20 20 19 19 18 19 20 20 20 22 19 19 19 19 19 18 20 16 17 17 15 14 14 14 14 8 5 7 10 14 15 15 13 11 11 10 11 7 5
4 5 8 15 19 17 19 19 20 20 18 18 19 20 20 19 17 17 16 20 18 20 19 20 17 20 21 21 19 19 18 16 15 16 15 13 13 10 7 6 6 8 12 15 15 12 11 9 9 7 5 5
6 8 11 13 18 20 19 18 18 18 18 17 15 17 18 18 14 11 11 13 11 17 14 17 18 19 20 21 20 18 17 17 16 16 16 16 12 8 6 5 5 8 11 13 13 12 10 9 7 5 6 6
4 7 10 8 7 9 12 15 15 13 10 10 9 15 14 11 9 9 8 8 11 9 10 13 16 17 17 20 20 19 18 17 16 15 15 14 10 8 7 5 3 5 8 11 10 9 9 8 6 5 6 6
3 7 7 7 8 8 9 10 11 9 10 9 8 8 8 5 5 6 6 7 6 7 10 11 14 15 16 17 20 19 19 17 17 16 14 13 11 9 7 3 3 4 5 6 8 8 6 6 6 6 6 6
3 6 4 6 7 7 7 9 6 7 8 8 8 7 6 5 4 6 6 7 10 8 6 6 8 13 14 16 16 18 13 16 15 17 15 13 11 7 4 3 3 4 4 5 5 5 5 6 6 6 5 5
4 2 2 5 4 4 7 7 7 7 8 8 8 6 5 4 3 5 6 5 5 5 4 3 4 6 5 8 9 14 7 8 10 8 6 6 6 5 4 4 4 4 4 4 5 5 5 5 5 6 5 5
5 4 4 5 4 5 5 5 5 5 5 5 6 7 7 6 5 5 6 5 4 4 4 4 2 3 3 5 6 7 7 7 8 7 6 6 6 5 5 5 4 3 4 4 5 5 4 5 5 6 5 5
4 5 4 1 1 5 7 6 7 7 6 6 7 8 8 8 6 5 5 6 5 4 3 3 2 3 3 4 5 5 7 7 6 7 7 6 6 6 6 5 4 4 3 4 5 4 3 3 4 6 5 4
5 4 4 3 3 2 4 10 10 9 9 11 13 13 11 11 9 8 7 6 5 5 3 3 3 4 4 4 3 4 6 6 5 5 4 6 6 7 6 7 5 5 4 4 4 4 3 3 4 5 5 5
4 3 2 3 2 1 3 4 7 10 9 8 7 9 11 11 10 9 9 9 9 6 7 5 5 5 5 5 4 5 5 6 6 5 5 3 4 6 7 7 7 6 5 4 4 5 4 4 3 4 4 4
3 4 3 4 6 5 6 6 5 6 6 7 6 8 11 12 12 12 12 11 8 9 8 7 6 6 6 6 5 5 6 4 5 5 3 4 3 3 4 6 8 8 7 6 4 4 4 3 4 3 4 4
5 3 4 3 5 6 7 5 6 7 8 8 8 8 9 12 13 13 11 12 12 10 10 8 8 7 6 6 6 6 7 5 6 5 6 5 4 3 2 2 2 5 7 7 6 5 5 4 4 3 4 5
4 5 5 5 5 6 3 1 2 2 3 4 5 4 4 4 7 8 7 9 10 10 10 9 9 8 8 8 6 6 7 7 6 6 6 5 4 3 2 2 1 1 4 6 7 7 6 5 5 4 3 5
11 8 3 6 5 5 8 5 4 5 6 7 9 8 7 3 3 4 8 8 11 11 10 10 10 9 9 8 8 7 7 7 6 5 6 4 3 4 3 3 1 1 2 3 4 5 6 6 6 5 4 5
12 13 9 3 3 4 6 7 7 7 3 4 4 3 6 8 5 5 4 4 6 7 8 8 9 10 9 8 8 7 7 8 7 7 7 6 6 5 6 5 4 5 3 1 1 3 4 5 6 6 5 4
14 13 13 10 6 2 6 5 6 5 5 4 3 0 2 4 6 7 7 6 5 5 5 7 8 9 8 7 7 7 6 7 6 7 8 6 6 4 4 5 5 5 6 5 4 3 2 3 4 4 5 4
12 13 12 12 11 8 4 3 5 4 6 4 1 2 2 3 2 3 4 6 7 6 5 6 7 8 7 8 8 7 7 6 8 7 7 7 8 8 6 5 5 4 6 6 6 4 4 4 4 4 4 4
14 13 13 13 12 13 12 9 5 2 5 3 4 4 4 3 5 3 3 3 6 7 6 6 5 3 4 5 7 7 7 7 6 8 7 6 5 7 7 7 6 4 4 5 5 5 5 5 5 6 5 4
12 11 11 11 10 12 13 13 11 8 6 2 4 5 7 4 3 3 3 3 3 3 5 4 4 3 4 5 6 7 7 7 5 5 7 7 5 6 6 7 7 7 5 3 3 3 3 3 4 5 5 4
11 12 10 9 11 11 13 12 12 13 11 9 8 7 2 4 6 7 6 5 3 3 3 4 4 5 6 6 4 4 4 4 3 3 4 7 6 4 6 8 8 8 7 5 4 3 2 1 2 2 3 4
12 11 12 13 13 13 13 12 11 11 11 12 12 11 9 7 3 5 7 7 7 5 5 4 4 4 3 5 6 7 7 7 7 8 8 8 9 7 4 2 5 6 6 4 4 3 1 1 1 1 1 2
15 15 13 11 12 10 9 9 10 10 11 11 11 13 13 11 8 8 4 7 9 8 8 8 7 8 8 7 7 8 9 8 7 7 6 5 4 9 7 4 3 4 6 7 2 1 0 1 1 1 1 3
12 12 11 10 9 9 7 10 11 11 11 11 11 12 13 13 12 10 8 8 5 6 8 7 7 7 8 8 9 8 7 7 7 7 6 6 5 4 8 7 6 6 8 3 8 7 2 1 2 2 2 4
12 11 12 11 10 9 7 6 7 7 8 9 11 11 12 12 13 13 10 7 7 6 3 3 5 6 6 7 7 7 7 7 7 7 8 8 10 6 2 2 4 8 9 5 3 4 6 3 4 4 3 3
12 12 11 10 9 10 8 8 7 5 9 14 16 15 13 12 12 13 12 10 6 4 5 3 3 3 5 7 6 7 7 8 9 7 7 8 7 7 7 5 6 8 8 5 11 5 4 3 3 1 9 9
11 11 11 9 6 5 8 10 12 12 14 13 12 12 14 15 14 13 12 13 12 7 4 3 2 3 3 3 5 7 9 10 13 13 12 12 10 12 11 8 5 7 7 6 8 8 7 2 0 7 2 6
12 12 13 15 17 18 15 14 14 15 14 14 14 13 11 11 13 14 13 12 13 12 9 6 4 3 3 3 2 3 5 5 4 7 10 12 13 13 12 11 7 8 9 7 10 7 1 4 6 6 4 8
12 13 13 13 12 11 11 10 9 8 9 9 9 7 10 10 11 12 14 14 13 14 14 11 7 4 3 4 4 5 3 4 6 7 9 8 8 11 10 9 11 12 10 7 9 10 8 0 1 3 8 7
Wind_Direction
63 144 141 134 143 145 143 142 141 146 152 154 151 150 153 151 152 148 147 152 153 155 149 145 144 148 144 150 149 149 140 137 136 137 137 132 129 129 119 101 91 85 81 74 69 63 58 54 62 64 77 77
148 152 152 150 151 147 150 144 149 152 155 155 154 156 155 155 154 155 157 160 161 157 154 149 145 148 151 153 155 153 154 145 141 140 137 135 136 139 117 109 104 95 89 82 74 67 61 57 55 59 69 68
178 169 154 152 154 153 150 147 149 155 162 161 159 157 152 155 155 160 156 157 158 161 156 154 153 160 155 156 160 136 143 154 146 143 134 139 146 143 119 110 101 103 96 89 81 73 62 60 56 59 61 65
137 195 165 157 154 159 162 160 163 167 168 164 161 157 156 157 160 162 159 164 166 162 160 160 164 168 159 158 164 154 152 158 162 157 152 152 148 130 133 117 102 95 96 94 87 79 71 62 61 63 69 63
167 174 178 173 166 168 170 166 167 165 165 165 159 157 157 158 161 162 166 170 165 165 167 165 168 166 160 159 163 155 148 154 156 159 155 153 129 141 128 106 86 87 87 88 92 89 84 74 67 72 75 73
183 174 178 183 178 173 172 168 166 162 159 161 162 161 158 159 160 159 164 159 158 163 168 167 169 164 167 161 159 151 150 153 154 156 150 136 140 144 130 112 69 51 66 76 76 80 87 85 84 72 76 75
197 190 192 191 181 182 175 169 168 162 159 162 160 158 156 147 152 145 139 147 146 156 165 169 172 168 169 160 158 154 150 150 150 147 143 143 150 144 114 85 78 87 85 75 71 65 66 79 79 80 76 75
199 205 197 205 189 184 174 171 163 156 153 155 155 154 142 133 139 129 126 125 134 146 160 172 176 169 164 154 148 145 146 152 151 149 146 149 135 110 103 100 78 81 85 90 93 85 75 78 79 77 81 81
237 295 288 189 198 198 178 162 158 155 153 152 145 128 115 112 121 121 117 115 125 141 143 143 175 152 143 143 144 144 144 138 139 134 126 119 108 127 123 111 105 101 87 75 86 92 90 86 80 83 84 90
212 186 202 211 167 137 143 144 139 139 138 139 138 130 122 119 119 120 115 121 134 142 144 145 118 111 118 123 134 133 132 131 130 130 131 137 129 125 121 113 108 101 116 108 87 91 91 94 92 89 84 89
202 198 198 186 306 171 149 139 145 155 150 144 140 140 141 139 143 135 132 139 147 155 141 121 96 105 105 126 127 126 129 136 139 142 149 151 141 134 124 113 111 111 105 110 107 91 85 88 100 99 100 95
198 213 195 142 144 257 199 161 164 157 165 170 172 166 162 154 152 151 152 160 164 165 139 129 116 109 107 104 109 118 130 135 133 142 149 152 148 142 135 128 121 115 112 106 114 111 100 86 83 97 103 109
207 204 142 113 127 143 204 186 169 174 166 172 171 163 159 154 153 159 162 169 176 164 167 156 151 147 139 128 130 130 134 143 147 150 155 166 166 157 149 143 139 132 121 113 101 118 119 114 103 95 94 99
202 193 174 161 170 181 188 194 188 161 173 165 167 176 168 167 162 169 171 174 173 169 170 163 157 156 158 151 152 147 151 155 143 149 148 158 171 168 158 152 153 143 139 131 123 113 119 113 124 114 105 101
194 180 184 180 167 167 187 195 179 182 173 174 175 177 186 181 176 171 172 172 174 177 169 164 164 167 158 161 169 164 160 159 155 147 154 163 171 169 156 138 139 147 145 144 142 141 131 141 121 107 104 106
265 184 193 171 171 175 194 176 238 208 187 174 186 178 237 229 177 167 171 171 173 177 172 170 171 167 169 175 170 173 164 161 159 159 158 159 162 154 130 125 128 115 140 152 153 149 148 148 139 144 132 117
344 304 212 173 185 175 170 149 185 208 189 186 193 183 173 226 225 179 176 185 183 181 178 174 171 174 180 174 172 170 167 155 148 139 137 143 132 126 115 119 115 76 119 151 165 153 158 152 153 158 143 135
3 357 329 288 192 172 174 180 182 194 218 242 196 184 183 175 185 192 182 196 206 189 183 179 180 180 181 177 171 164 160 161 159 156 157 166 151 163 155 160 161 143 143 167 142 164 160 155 159 154 149 147
3 2 7 356 308 222 177 192 188 177 191 200 231 131 237 233 193 186 177 171 192 214 200 187 188 187 184 169 165 166 171 162 164 157 164 160 161 159 164 162 168 163 163 160 170 171 147 156 148 146 150 142
3 7 11 6 9 351 306 185 185 179 191 182 125 124 145 187 230 223 199 178 172 190 214 209 200 195 174 169 166 169 167 166 170 169 165 176 163 160 176 164 181 178 166 171 168 173 162 157 150 141 141 148
6 11 10 11 14 14 20 357 317 256 186 163 173 176 200 186 177 190 241 220 181 178 191 208 213 192 179 172 170 170 173 180 179 169 166 172 177 169 164 171 171 182 177 176 179 174 171 174 160 163 167 165
0 6 10 15 11 21 23 15 13 4 339 304 207 177 197 187 142 164 197 216 250 208 181 185 179 168 158 169 179 177 177 185 171 168 165 167 174 167 160 170 171 177 175 170 175 195 192 181 170 172 167 169
358 6 14 19 18 18 19 20 22 15 18 6 355 330 322 158 180 187 177 181 184 191 187 173 165 167 167 165 166 165 168 153 150 164 171 169 170 179 189 175 177 171 162 159 157 166 214 251 225 200 180 168
5 9 13 6 7 17 17 13 18 20 20 11 12 2 357 322 285 192 181 185 172 166 174 173 177 168 154 160 161 165 174 176 181 181 177 187 175 176 195 206 168 150 146 120 130 160 152 276 300 279 267 199
7 7 0 6 14 10 10 4 14 23 14 14 11 10 4 3 357 325 273 199 182 192 186 187 179 170 173 173 178 184 190 183 181 181 184 176 182 174 179 197 175 167 138 131 92 36 55 348 356 335 302 251
8 9 8 357 355 356 0 6 15 14 11 8 10 11 9 7 358 356 351 325 282 213 189 182 179 182 182 178 185 190 176 176 183 178 169 162 182 216 188 189 175 176 130 186 178 156 153 4 325 301 291 263
8 6 5 3 3 3 353 11 18 12 7 13 14 11 10 6 3 359 349 351 343 322 297 219 186 193 182 184 178 173 184 181 179 179 177 175 182 181 235 196 194 185 190 149 116 100 95 196 179 269 284 278
1 2 360 1 2 6 18 16 4 7 10 16 13 10 5 7 3 2 356 346 340 343 339 320 262 219 186 192 186 188 177 180 185 178 195 184 181 160 187 195 207 209 199 152 140 162 184 173 125 304 243 218
2 1 6 4 358 8 9 16 18 14 18 15 8 4 7 360 358 357 359 359 345 327 305 296 309 315 302 284 224 203 193 191 193 188 188 185 180 178 191 196 200 211 218 214 207 147 124 71 258 224 231 161
8 9 9 8 10 11 11 11 9 12 4 2 6 2 349 356 0 357 359 1 356 349 333 310 286 234 208 222 260 262 251 239 215 197 192 193 189 189 184 185 180 207 218 216 234 249 289 145 175 181 200 136
10 11 15 17 14 12 11 6 4 1 355 360 357 354 358 356 358 2 1 1 1 357 356 344 320 292 249 215 204 207 220 244 225 221 211 202 194 200 187 165 192 206 205 211 246 240 247 125 3 194 134 199